(3995) Sakaino = 1958 XE = 1984 YV4 = 1988 XM = 1978 JB1 = 1981 CF

Discovered at Chiyoda on 1988-12-05 by T. Kojima.
(3995) Sakaino = 1988 XM

Named in honor of Teruo Sakaino (b. 1917), a glass and ceramics chemist, professor emeritus of the Tokyo Institute of Technology and of the Wuhan (China) University of Engineering, known for his research on amorphous materials. In particular, he developed quantitative methods for estimating the quality of optical glass. He is also an amateur astronomer and a former teacher of the discoverer at the T.I.T. [Ref: Minor Planet Circ. 28089]

Orbit

Orbit type: Main Belt

Note: WebGL enabled browser required.

epoch2024-03-31.0
epoch JD2460400.5
perihelion date2022-08-08.33087
perihelion JD2459799.83087
argument of perihelion (°)275.73017
ascending node (°)99.74747
inclination (°)9.29448
eccentricity0.0942677
perihelion distance (AU)2.3864640
Tisserand w.r.t. Jupiter3.4
ΔV w.r.t. Earth (km/sec)10.1
semimajor axis (AU)2.6348446
mean anomaly (°)138.42249
mean daily motion (°/day)0.23044720
aphelion distance (AU)2.883
period (years)4.28
P-vector [x]0.95086011
P-vector [y]0.30673575
P-vector [z]-0.04216899
Q-vector [x]-0.26557046
Q-vector [y]0.87799847
Q-vector [z]0.39823489
absolute magnitude12.23
phase slope0.15
uncertainty0
referenceMPEC 2024-F50
observations used3985
oppositions29
arc length (days)23846
first opposition used1958
last opposition used2024
residual rms (arc-secs)0.46
perturbers coarse indicatorM-v
perturbers precise indicator003Ek
first observation date used1958-12-04.0
last observation date used2024-03-19.0
computer nameMPCLINUX
JD of orbit computation2456966.872045
perihelion JD uncertainty (days)7.5223E-05
argument of perihelion uncertainty (°)2.5760E-05
ascending node uncertainty (°)1.9549E-05
inclination uncertainty (°)3.2470E-06
eccentricity uncertainty 2.9406E-08
perihelion distance uncertainty (AU)7.8522E-08
Minimum Orbit Intersection Distances (in AU)
for orbit epoch: 2460400.5, reference: E2024-GD4
Mercury2.03197
Venus1.66712
Earth1.40977
Mars0.96958
Jupiter2.56646
Saturn6.43021
Uranus15.6189
Neptune27.422

Observations

4040 total observations over interval: 1958 12 04.86016 – 2024 03 19.333066
These data are available for download (format description).

Date (UT) J2000 RA J2000 Dec Magn Location Ref
1958 12 04.86016 04 06 51.01 +12 01 34.5   024 – Heidelberg-Konigstuhl HD 21
1958 12 04.86016 04 06.7 +12 04 14.7   024 – Heidelberg-Konigstuhl MPC 1835
1978 05 06.01247 16 52 44.74 -14 07 33.2 17.0   095 – Crimea-Nauchnyi MPC 6014
1981 02 02.85957 09 05 15.29 +24 47 54.6 17.2   046 – Klet Observatory, Ceske Budejovice MPC 5874
1981 02 02.87375 09 05 14.63 +24 47 58.6   046 – Klet Observatory, Ceske Budejovice MPC 5874
1984 12 23.01190 07 07 28.66 +22 33 48.8   010 – Caussols MPC 11114
1984 12 23.05380 07 07 26.06 +22 34 07.3   010 – Caussols MPC 11114
1984 12 28.00215 07 02 31.81 +23 00 13.1 17.0   095 – Crimea-Nauchnyi MPC 9898
1988 12 05.49514 04 34 49.66 +14 22 27.2 16   897 – YGCO Chiyoda Station MPC 13994
1988 12 05.53333 04 34 47.24 +14 22 32.9   897 – YGCO Chiyoda Station MPC 13994
1988 12 07.51348 04 32 46.84 +14 26 32.3 16   897 – YGCO Chiyoda Station MPC 13994
1988 12 07.55278 04 32 44.49 +14 26 38.6   897 – YGCO Chiyoda Station MPC 13994
1988 12 10.51370 04 29 48.14 +14 33 13.3   894 – Kiyosato MPC 14151
1988 12 10.53227 04 29 47.05 +14 33 13.6   894 – Kiyosato MPC 14151
1988 12 10.55204 04 29 45.79 +14 33 16.7   894 – Kiyosato MPC 14151
1989 01 01.45023 04 12 56.14 +15 41 16.0 16   897 – YGCO Chiyoda Station MPC 14151
1989 01 01.49745 04 12 54.68 +15 41 27.2   897 – YGCO Chiyoda Station MPC 14151
1989 01 25.39757 04 09 39.65 +17 29 33.4 17.5   897 – YGCO Chiyoda Station MPC 14321
1989 01 25.43970 04 09 39.94 +17 29 46.1 17.5   897 – YGCO Chiyoda Station MPC 14321
1992 10 20.95062 02 26 29.66 -01 04 00.8   095 – Crimea-Nauchnyi MPC 27605
1994 02 14.44027 10 17 54.20 +21 56 51.8 16.2   675 – Palomar Mountain MPC 24046
1994 02 14.47656 10 17 52.22 +21 57 07.3   675 – Palomar Mountain MPC 24046
1994 02 15.44366 10 17 00.34 +22 04 08.7   675 – Palomar Mountain MPC 24046
1994 02 15.49461 10 16 57.52 +22 04 30.2   675 – Palomar Mountain MPC 24046
1995 03 22.69331 16 18 03.68 -11 43 18.5   413 – Siding Spring Observatory MPC 25117
1995 03 22.71044 16 18 03.88 -11 43 17.3   413 – Siding Spring Observatory MPC 25117
1995 04 10.59366 16 17 26.06 -11 12 49.3   897 – YGCO Chiyoda Station MPC 25181
1995 04 10.62444 16 17 25.65 -11 12 47.7   897 – YGCO Chiyoda Station MPC 25181
1995 04 10.63585 16 17 25.49 -11 12 44.8 17.1 V 897 – YGCO Chiyoda Station MPC 25181
1995 04 16.73809 16 15 16.05 -11 00 45.9   413 – Siding Spring Observatory MPC 25117
1995 04 16.78252 16 15 14.81 -11 00 41.1   413 – Siding Spring Observatory MPC 25117
1995 04 22.01527 16 12 40.42 -10 50 19.3   118 – Astronomical and Geophysical Observatory, Modra MPC 25107
1995 04 23.66285 16 11 43.89 -10 47 02.1 16.3 V 360 – Kuma Kogen MPC 25110
1995 04 23.67378 16 11 43.49 -10 47 00.7   360 – Kuma Kogen MPC 25110
1995 04 25.06228 16 10 52.80 -10 44 17.2 16.9 R 046 – Klet Observatory, Ceske Budejovice MPC 25104
1995 04 25.06593 16 10 52.70 -10 44 16.8   046 – Klet Observatory, Ceske Budejovice MPC 25104
1995 04 25.07120 16 10 52.46 -10 44 16.1   046 – Klet Observatory, Ceske Budejovice MPC 25104
1995 04 26.71528 16 09 49.37 -10 41 02.5   360 – Kuma Kogen MPC 25110
1995 04 26.72378 16 09 49.01 -10 41 01.7   360 – Kuma Kogen MPC 25110
1995 05 04.09124 16 04 26.94 -10 27 23.1 16.9 R 046 – Klet Observatory, Ceske Budejovice MPC 25104
1995 05 04.09328 16 04 26.84 -10 27 23.0   046 – Klet Observatory, Ceske Budejovice MPC 25104
1995 05 04.09530 16 04 26.74 -10 27 22.8   046 – Klet Observatory, Ceske Budejovice MPC 25104
1995 05 09.94172 15 59 34.12 -10 17 56.5   118 – Astronomical and Geophysical Observatory, Modra MPC 25259
1995 05 25.03975 15 45 42.02 -10 03 07.7   118 – Astronomical and Geophysical Observatory, Modra MPC 25259
1995 05 26.11770 15 44 42.28 -10 02 39.8   808 – El Leoncito MPC 28238
1995 05 26.16618 15 44 39.49 -10 02 38.9   808 – El Leoncito MPC 28238
1995 06 03.84455 15 36 54.78 -10 03 49.2 17.2 V 596 – Colleverde di Guidonia MPC 25374
1995 06 03.85714 15 36 54.11 -10 03 49.2   596 – Colleverde di Guidonia MPC 25374
1996 10 13.23227 23 36 00.82 -18 31 59.7   689 – U.S. Naval Observatory, Flagstaff MPC 28016
1996 11 15.58574 23 32 33.90 -16 18 57.3   897 – YGCO Chiyoda Station MPC 28805
1996 11 15.59962 23 32 34.27 -16 18 52.7   897 – YGCO Chiyoda Station MPC 28805
1996 11 19.49560 23 34 05.38 -15 49 42.8 16.3 R 897 – YGCO Chiyoda Station MPC 29065
1996 11 19.50949 23 34 05.74 -15 49 36.8   897 – YGCO Chiyoda Station MPC 29065
1996 12 02.55647 23 41 42.27 -13 57 44.0   897 – YGCO Chiyoda Station MPC 29065
1996 12 02.56661 23 41 42.63 -13 57 40.0   897 – YGCO Chiyoda Station MPC 29065
1996 12 08.45039 23 46 16.95 -13 01 11.9   897 – YGCO Chiyoda Station MPC 29065
1996 12 08.47123 23 46 18.00 -13 01 00.6   897 – YGCO Chiyoda Station MPC 29065
1998 01 05.60114 08 29 04.28 +23 25 44.0 16.3 V 900 – Moriyama MPS 375
1998 01 05.61379 08 29 03.61 +23 25 49.2   900 – Moriyama MPS 375
1998 01 09.39830 08 25 45.133 +23 51 47.20 15.39 J G91 – Whipple Observatory, Mt. Hopkins--2MASS MPS 80460
1998 01 09.40730 08 25 44.620 +23 51 50.88 15.02 J G91 – Whipple Observatory, Mt. Hopkins--2MASS MPS 80460
1998 01 28.30445 08 07 19.51 +25 52 06.0 16.2 V 566 – Haleakala-NEAT/GEODSS MPS 499
1998 01 28.30534 08 07 19.43 +25 52 05.2 16.3 V 566 – Haleakala-NEAT/GEODSS MPS 499
1998 01 28.31427 08 07 18.92 +25 52 09.4 16.1 V 566 – Haleakala-NEAT/GEODSS MPS 499
1998 01 28.31499 08 07 18.84 +25 52 08.6 16.2 V 566 – Haleakala-NEAT/GEODSS MPS 499
1998 01 28.32371 08 07 18.35 +25 52 12.4 16.1 V 566 – Haleakala-NEAT/GEODSS MPS 499
1998 01 28.32448 08 07 18.29 +25 52 11.7 16.2 V 566 – Haleakala-NEAT/GEODSS MPS 499
1998 01 29.27900 08 06 22.725 +25 57 26.76 14.52 J G91 – Whipple Observatory, Mt. Hopkins--2MASS MPS 80460
1998 02 22.25415 07 48 24.29 +27 27 47.9 16.5 V 566 – Haleakala-NEAT/GEODSS MPS 608
1998 02 22.26463 07 48 23.96 +27 27 49.0 16.6 V 566 – Haleakala-NEAT/GEODSS MPS 608
1998 02 22.27489 07 48 23.67 +27 27 50.5 16.6 V 566 – Haleakala-NEAT/GEODSS MPS 608
1999 03 20.42552 14 41 58.44 -02 28 49.4 16.6 R 699 – Lowell Observatory-LONEOS MPS 4362
1999 03 20.46659 14 41 57.54 -02 28 37.7   699 – Lowell Observatory-LONEOS MPS 4362
1999 03 20.47765 14 41 57.27 -02 28 35.9   699 – Lowell Observatory-LONEOS MPS 4362
1999 03 24.42656 14 40 24.99 -02 10 44.8 16.4 R 699 – Lowell Observatory-LONEOS MPS 59216
1999 03 24.45210 14 40 24.28 -02 10 38.0   699 – Lowell Observatory-LONEOS MPS 59216
1999 03 24.47758 14 40 23.59 -02 10 30.4   699 – Lowell Observatory-LONEOS MPS 59216
1999 04 12.38553 14 28 30.34 -00 41 14.1 17.8   704 – Lincoln Laboratory ETS, New Mexico MPS 4662
1999 04 12.40277 14 28 29.50 -00 41 09.4   704 – Lincoln Laboratory ETS, New Mexico MPS 4662
1999 04 12.42005 14 28 28.68 -00 41 04.5   704 – Lincoln Laboratory ETS, New Mexico MPS 4662
1999 04 12.43731 14 28 27.91 -00 40 59.9 18.1   704 – Lincoln Laboratory ETS, New Mexico MPS 4662
1999 04 12.45459 14 28 26.99 -00 40 55.3 18.1   704 – Lincoln Laboratory ETS, New Mexico MPS 4662
1999 04 15.34926 14 26 07.04 -00 28 00.9 16.7   704 – Lincoln Laboratory ETS, New Mexico MPS 4662
1999 04 15.36712 14 26 06.07 -00 27 56.1 17.4   704 – Lincoln Laboratory ETS, New Mexico MPS 4662
1999 04 15.38522 14 26 05.24 -00 27 51.7 17.3   704 – Lincoln Laboratory ETS, New Mexico MPS 4662
1999 04 15.40341 14 26 04.35 -00 27 47.3 17.5   704 – Lincoln Laboratory ETS, New Mexico MPS 4662
1999 04 15.42164 14 26 03.33 -00 27 41.5 16.9   704 – Lincoln Laboratory ETS, New Mexico MPS 4662
1999 04 16.30960 14 25 19.44 -00 23 50.9 16.2 R 703 – Catalina Sky Survey MPS 4662
1999 04 16.31749 14 25 19.02 -00 23 47.8 16.2 R 703 – Catalina Sky Survey MPS 4662
1999 04 16.32533 14 25 18.52 -00 23 45.7 15.9 R 703 – Catalina Sky Survey MPS 4662
